Latest Coastal Weather Observations for Bougainville Reef

IDQ60701

Issued at 1:05 pm EST Sunday 26 October 2014 (issued every 10 minutes, with the page automatically refreshed every 10 minutes)

About coastal observations | Map of coastal stations | Coastal observations for QLD | Marine services | Other Formats
Station Details ID: 200840 Name: BOUGAINVILLE REEF Lat: -15.49 Lon: 147.12 Height: 0.0 m
Data from the previous 72 hours. | See also: Recent months for locations in Queensland
Date/Time
EST
Temp

°C
Wind Pressure Rain
since 9am
mm
Weather Cloud Vis
km
Sea
Height
m
Swell
Dir
 
Speed
knots
Gust
knots
hPa Trend Height
m
Period
s
Dir
26/01:00pm 25.0 E 12 - 1014.5 - - - - - - - - -
26/12:00pm 25.1 E 13 16 1015.4 - - - - - - - - -
26/11:30am 24.9 E 15 19 1015.6 - - - - - - - - -
26/11:00am 25.1 ESE 12 18 1015.7 - - - - - - - - -
26/10:30am 24.9 E 14 18 1016.0 - - - - - - - - -
26/10:00am 25.1 E 15 18 1016.2 - - - - - - - - -
26/09:30am 25.1 ENE 15 19 1016.4 - - - - - - - - -
26/09:00am 25.2 E 13 20 1016.3 - - - - - - - - -
26/08:30am 25.1 ESE 15 17 1016.2 - - - - - - - - -
26/08:00am 25.2 ESE 17 22 1015.9 - - - - - - - - -
26/07:30am 25.0 ESE 16 22 1015.9 - - - - - - - - -
26/07:00am 24.8 ESE 18 20 1015.5 - - - - - - - - -
26/06:30am 24.9 ESE 20 24 1015.2 - - - - - - - - -
26/06:00am 24.5 ESE 16 24 1014.9 - - - - - - - - -
26/05:30am 24.4 SE 17 22 1014.8 - - - - - - - - -
26/05:00am 24.5 ESE 22 27 1014.2 - - - - - - - - -
26/04:30am 24.6 ESE 19 24 1014.2 - - - - - - - - -
26/04:00am 24.3 ESE 15 18 1014.2 - - - - - - - - -
26/03:30am 24.4 ESE 21 28 1014.1 - - - - - - - - -
26/03:00am 24.1 E 18 20 1014.1 - - - - - - - - -
26/02:30am 24.3 E 18 23 1014.4 - - - - - - - - -
26/02:10am 24.5 E 18 22 1014.5 - - - - - - - - -
26/02:04am 24.3 NE 20 25 1014.5 - - - - - - - - -
26/02:00am 24.4 ESE 16 25 1014.6 - - - - - - - - -
26/01:30am 24.4 E 18 24 1014.9 - - - - - - - - -
26/01:00am 24.4 E 19 23 1015.2 - - - - - - - - -
26/12:35am 24.3 E 20 25 1015.4 - - - - - - - - -
26/12:31am 24.3 NE 19 24 1015.5 - - - - - - - - -
26/12:30am 24.3 E 20 24 1015.5 - - - - - - - - -
26/12:00am 24.5 E 20 24 1016.0 - - - - - - - - -
 
Date/Time
EST
Temp

°C
Wind Pressure Rain
since 9am
mm
Weather Cloud Vis
km
Sea
Height
m
Swell
Dir
 
Speed
knots
Gust
knots
hPa Trend Height
m
Period
s
Dir
25/11:30pm 24.6 E 21 26 1016.4 - - - - - - - - -
25/11:15pm 24.6 E 20 25 1016.5 - - - - - - - - -
25/11:00pm 24.8 E 17 23 1016.8 - - - - - - - - -
25/10:43pm 24.8 SE 18 24 1016.9 - - - - - - - - -
25/10:42pm 24.4 E 20 24 1016.9 - - - - - - - - -
25/10:30pm 24.5 ENE 19 23 1017.0 - - - - - - - - -
25/10:00pm 24.8 ENE 18 21 1017.0 - - - - - - - - -
25/09:36pm 24.8 E 17 23 1017.0 - - - - - - - - -
25/09:34pm 24.9 NE 21 23 1017.0 - - - - - - - - -
25/09:30pm 24.8 E 16 21 1017.0 - - - - - - - - -
25/09:00pm 24.9 E 17 22 1016.6 - - - - - - - - -
25/08:30pm 25.1 E 20 26 1016.5 - - - - - - - - -
25/08:00pm 24.9 ESE 19 22 1016.2 - - - - - - - - -
25/07:30pm 24.9 ESE 21 25 1016.1 - - - - - - - - -
25/07:00pm 25.0 E 19 22 1015.7 - - - - - - - - -
25/06:30pm 24.9 E 19 24 1015.6 - - - - - - - - -
25/06:00pm 25.1 E 18 22 1015.0 - - - - - - - - -
25/05:30pm 25.2 E 17 22 1015.0 - - - - - - - - -
25/05:00pm 24.9 E 19 22 1014.3 - - - - - - - - -
25/04:30pm 25.0 E 17 21 1014.2 - - - - - - - - -
25/04:00pm 25.0 E 17 21 1013.9 - - - - - - - - -
25/03:30pm 24.9 E 16 20 1014.1 - - - - - - - - -
25/03:00pm 24.7 SE 17 21 1014.3 - - - - - - - - -
25/02:30pm 24.8 SE 15 20 1014.5 - - - - - - - - -
25/02:00pm 24.0 SSE 17 21 1014.8 - - - - - - - - -
25/01:30pm 23.8 SE 22 27 1015.0 - - - - - - - - -
25/01:00pm 23.9 ESE 22 23 1015.3 - - - - - - - - -
25/12:30pm 24.0 SE 18 32 1015.6 - - - - - - - - -
25/12:00pm 24.6 SE 18 23 1016.0 - - - - - - - - -
25/11:30am 24.5 E 17 23 1016.4 - - - - - - - - -
25/11:00am 25.2 E 17 22 1016.9 - - - - - - - - -
25/10:30am 25.3 ESE 19 25 1017.1 - - - - - - - - -
25/10:00am 25.6 E 19 23 1017.2 - - - - - - - - -
25/09:30am 25.5 ESE 19 23 1017.4 - - - - - - - - -
25/09:00am 25.4 ESE 19 23 1017.5 - - - - - - - - -
25/08:30am 25.4 ESE 20 25 1017.5 - - - - - - - - -
25/08:00am 25.4 ESE 24 26 1017.1 - - - - - - - - -
25/07:30am 25.2 ESE 23 27 1017.0 - - - - - - - - -
25/07:00am 25.4 ESE 23 25 1016.4 - - - - - - - - -
25/06:30am 24.9 E 21 27 1016.3 - - - - - - - - -
25/06:10am 25.5 ESE 21 23 1016.0 - - - - - - - - -
25/06:00am 25.2 E 21 28 1015.7 - - - - - - - - -
25/05:30am 24.8 E 22 29 1015.6 - - - - - - - - -
25/05:29am 25.1 E 21 28 1015.6 - - - - - - - - -
25/05:24am 24.9 NE 22 28 1015.5 - - - - - - - - -
25/05:13am 24.7 E 22 28 1015.5 - - - - - - - - -
25/05:08am 24.7 NNE 25 28 1015.4 - - - - - - - - -
25/05:05am 24.9 E 18 30 1015.4 - - - - - - - - -
25/05:02am 24.8 NNE 23 30 1015.4 - - - - - - - - -
25/05:00am 24.6 E 24 30 1015.2 - - - - - - - - -
25/04:54am 24.8 ESE 24 31 1015.3 - - - - - - - - -
25/04:30am 24.5 E 22 27 1015.2 - - - - - - - - -
25/04:00am 24.7 E 21 25 1014.9 - - - - - - - - -
25/03:30am 24.8 ESE 24 30 1014.8 - - - - - - - - -
25/03:00am 24.4 E 24 28 1014.7 - - - - - - - - -
25/02:51am 24.5 E 24 28 1014.7 - - - - - - - - -
25/02:30am 24.3 ESE 22 28 1014.8 - - - - - - - - -
25/02:28am 24.4 ESE 23 28 1014.8 - - - - - - - - -
25/02:26am 24.2 E 25 28 1014.7 - - - - - - - - -
25/02:24am 24.3 SE 21 28 1014.8 - - - - - - - - -
25/02:09am 23.9 E 21 25 1014.9 - - - - - - - - -
25/02:07am 24.0 SE 20 26 1015.0 - - - - - - - - -
25/02:06am 24.1 E 20 26 1015.0 - - - - - - - - -
25/02:00am 23.7 SE 22 27 1015.0 - - - - - - - - -
25/01:59am 23.7 ESE 21 27 1015.0 - - - - - - - - -
25/01:56am 23.6 SE 20 27 1015.0 - - - - - - - - -
25/01:53am 23.6 ENE 25 27 1015.0 - - - - - - - - -
25/01:49am 23.8 ESE 21 28 1015.1 - - - - - - - - -
25/01:44am 23.2 ENE 22 29 1015.2 - - - - - - - - -
25/01:37am 23.6 SE 22 29 1015.3 - - - - - - - - -
25/01:30am 24.2 E 20 25 1015.5 - - - - - - - - -
25/01:29am 24.1 ENE 20 25 1015.5 - - - - - - - - -
25/01:17am 24.0 E 22 27 1015.6 - - - - - - - - -
25/01:15am 24.4 SE 23 27 1015.6 - - - - - - - - -
25/01:12am 24.2 ENE 23 27 1015.5 - - - - - - - - -
25/01:10am 24.5 ESE 20 26 1015.6 - - - - - - - - -
25/01:07am 24.2 ENE 21 26 1015.6 - - - - - - - - -
25/01:00am 24.0 SE 23 30 1015.7 - - - - - - - - -
25/12:59am 24.1 ESE 25 30 1015.7 - - - - - - - - -
25/12:50am 24.0 SE 23 29 1015.8 - - - - - - - - -
25/12:49am 24.2 E 24 29 1015.9 - - - - - - - - -
25/12:45am 24.0 ENE 25 29 1015.9 - - - - - - - - -
25/12:30am 23.6 ESE 25 31 1016.1 - - - - - - - - -
25/12:18am 24.1 SE 22 32 1016.1 - - - - - - - - -
25/12:15am 23.9 E 19 31 1016.2 - - - - - - - - -
25/12:00am 23.7 ESE 19 22 1016.6 - - - - - - - - -
 
Date/Time
EST
Temp

°C
Wind Pressure Rain
since 9am
mm
Weather Cloud Vis
km
Sea
Height
m
Swell
Dir
 
Speed
knots
Gust
knots
hPa Trend Height
m
Period
s
Dir
24/11:30pm 22.0 E 17 27 1017.0 - - - - - - - - -
24/11:25pm 21.5 E 19 31 1017.1 - - - - - - - - -
24/11:20pm 22.4 ESE 25 31 1017.2 - - - - - - - - -
24/11:19pm 22.6 E 20 31 1017.2 - - - - - - - - -
24/11:15pm 23.1 ENE 19 24 1017.2 - - - - - - - - -
24/11:03pm 22.0 ESE 22 32 1017.3 - - - - - - - - -
24/11:00pm 23.4 ESE 25 32 1017.2 - - - - - - - - -
24/10:38pm 24.8 E 18 25 1017.3 - - - - - - - - -
24/10:31pm 24.5 SSE 20 25 1017.3 - - - - - - - - -
24/10:30pm 24.9 ESE 19 27 1017.3 - - - - - - - - -
24/10:29pm 24.9 E 19 27 1017.3 - - - - - - - - -
24/10:28pm 24.9 NE 20 27 1017.4 - - - - - - - - -
24/10:07pm 24.7 ESE 21 28 1017.5 - - - - - - - - -
24/10:05pm 24.7 NE 24 29 1017.5 - - - - - - - - -
24/10:00pm 24.7 ESE 21 29 1017.4 - - - - - - - - -
24/09:30pm 24.8 SE 22 27 1017.3 - - - - - - - - -
24/09:00pm 24.6 E 27 29 1016.8 - - - - - - - - -
24/08:59pm 24.6 SE 22 29 1017.0 - - - - - - - - -
24/08:55pm 24.7 E 23 31 1016.9 - - - - - - - - -
24/08:52pm 24.7 SE 23 31 1017.0 - - - - - - - - -
24/08:50pm 24.6 E 27 31 1016.9 - - - - - - - - -
24/08:48pm 24.8 SSE 22 28 1017.0 - - - - - - - - -
24/08:30pm 24.8 ESE 23 29 1016.8 - - - - - - - - -
24/08:14pm 24.5 ESE 21 32 1016.7 - - - - - - - - -
24/08:10pm 24.3 ENE 23 32 1016.6 - - - - - - - - -
24/08:01pm 24.5 SE 18 28 1016.5 - - - - - - - - -
24/08:00pm 23.8 E 21 27 1016.3 - - - - - - - - -
24/07:56pm 24.3 SE 17 27 1016.4 - - - - - - - - -
24/07:54pm 24.3 SE 15 25 1016.5 - - - - - - - - -
24/07:49pm 23.9 E 20 26 1016.5 - - - - - - - - -
24/07:43pm 24.8 SSE 15 25 1016.4 - - - - - - - - -
24/07:30pm 24.8 ESE 15 24 1016.3 - - - - - - - - -
24/07:19pm 24.9 SE 20 27 1016.2 - - - - - - - - -
24/07:15pm 24.9 E 17 27 1016.2 - - - - - - - - -
24/07:00pm 24.8 SSE 16 26 1016.0 - - - - - - - - -
24/06:30pm 24.8 ENE 15 25 1016.0 - - - - - - - - -
24/06:18pm 24.7 SE 15 25 1015.9 - - - - - - - - -
24/06:00pm 24.9 SE 19 23 1015.5 - - - - - - - - -
24/05:34pm 24.9 SE 15 25 1015.4 - - - - - - - - -
24/05:30pm 24.8 SE 17 25 1015.4 - - - - - - - - -
24/05:00pm 24.9 SE 17 24 1014.8 - - - - - - - - -
24/04:30pm 24.7 SE 19 27 1014.7 - - - - - - - - -
24/04:18pm 24.9 SSE 20 28 1014.6 - - - - - - - - -
24/04:16pm 24.9 ESE 20 28 1014.6 - - - - - - - - -
24/04:13pm 24.7 NNE 18 28 1014.6 - - - - - - - - -
24/04:00pm 24.7 SE 18 25 1014.4 - - - - - - - - -
24/03:30pm 24.8 SE 17 28 1014.5 - - - - - - - - -
24/03:27pm 24.8 SE 17 28 1014.5 - - - - - - - - -
24/03:10pm 25.0 SSE 20 26 1014.6 - - - - - - - - -
24/03:08pm 24.7 ENE 20 25 1014.6 - - - - - - - - -
24/03:00pm 24.6 SE 17 27 1014.5 - - - - - - - - -
24/02:51pm 24.7 SE 17 27 1014.6 - - - - - - - - -
24/02:30pm 24.8 SE 15 24 1014.8 - - - - - - - - -
24/02:00pm 24.7 SSE 17 23 1014.9 - - - - - - - - -
24/01:30pm 24.8 SE 18 22 1015.2 - - - - - - - - -
24/01:00pm 24.8 SE 16 22 1015.5 - - - - - - - - -
24/12:37pm 24.7 SE 15 25 1015.9 - - - - - - - - -
24/12:30pm 24.9 SE 15 21 1016.0 - - - - - - - - -
24/12:00pm 24.7 SE 18 22 1016.6 - - - - - - - - -
24/11:30am 24.6 SE 19 24 1016.9 - - - - - - - - -
24/11:00am 24.9 ESE 19 24 1017.2 - - - - - - - - -
24/10:30am 24.9 ESE 18 23 1017.5 - - - - - - - - -
24/10:27am 24.8 ESE 19 23 1017.5 - - - - - - - - -
24/10:25am 24.9 NNE 20 23 1017.5 - - - - - - - - -
24/10:00am 25.0 ESE 19 23 1017.6 - - - - - - - - -
24/09:30am 24.8 E 19 24 1017.7 - - - - - - - - -
24/09:00am 24.8 E 18 23 1017.6 - - - - - - - - -
24/08:30am 24.8 SSE 18 25 1017.7 - - - - - - - - -
24/08:00am 24.9 E 19 24 1017.3 - - - - - - - - -
24/07:46am 24.8 E 18 24 1017.4 - - - - - - - - -
24/07:37am 24.5 NE 20 24 1017.3 - - - - - - - - -
24/07:35am 24.8 SE 18 24 1017.2 - - - - - - - - -
24/07:30am 25.0 ENE 20 24 1017.2 - - - - - - - - -
24/07:22am 24.7 ENE 19 25 1017.2 - - - - - - - - -
24/07:00am 24.9 E 20 26 1016.6 - - - - - - - - -
24/06:30am 24.7 E 18 27 1016.5 - - - - - - - - -
24/06:28am 24.7 ENE 17 27 1016.4 - - - - - - - - -
24/06:00am 24.5 ESE 22 27 1015.9 - - - - - - - - -
24/05:30am 24.6 ESE 23 28 1015.7 - - - - - - - - -
24/05:00am 24.5 ESE 21 26 1015.2 - - - - - - - - -
24/04:46am 24.5 ESE 24 27 1015.2 - - - - - - - - -
24/04:43am 24.4 E 21 25 1015.2 - - - - - - - - -
24/04:42am 24.5 N 21 26 1015.2 - - - - - - - - -
24/04:41am 24.6 NNW 22 26 1015.2 - - - - - - - - -
24/04:30am 24.3 ESE 21 25 1015.2 - - - - - - - - -
24/04:00am 24.0 ESE 21 29 1014.8 - - - - - - - - -
24/03:46am 24.0 ESE 23 25 1014.9 - - - - - - - - -
24/03:38am 24.3 E 21 26 1014.8 - - - - - - - - -
24/03:30am 24.5 NE 19 25 1014.8 - - - - - - - - -
24/03:25am 24.4 NE 20 25 1014.8 - - - - - - - - -
24/03:14am 24.3 E 19 24 1014.9 - - - - - - - - -
24/03:09am 24.2 NE 20 24 1014.9 - - - - - - - - -
24/03:07am 24.6 E 17 23 1014.9 - - - - - - - - -
24/03:02am 24.2 NE 20 24 1014.9 - - - - - - - - -
24/03:00am 24.5 ENE 18 24 1014.8 - - - - - - - - -
24/02:55am 24.3 E 20 24 1014.9 - - - - - - - - -
24/02:50am 24.5 ENE 18 23 1014.9 - - - - - - - - -
24/02:30am 24.5 ESE 20 23 1015.1 - - - - - - - - -
24/02:27am 24.5 E 20 23 1015.2 - - - - - - - - -
24/02:25am 24.5 NE 20 23 1015.2 - - - - - - - - -
24/02:00am 24.3 ESE 20 23 1015.6 - - - - - - - - -
24/01:55am 24.4 ESE 21 26 1015.7 - - - - - - - - -
24/01:51am 24.4 ENE 21 26 1015.7 - - - - - - - - -
24/01:46am 24.5 SE 20 26 1015.8 - - - - - - - - -
24/01:30am 24.5 E 21 25 1015.9 - - - - - - - - -
24/01:28am 24.4 NNE 21 25 1015.9 - - - - - - - - -
24/01:06am 24.3 E 20 24 1016.1 - - - - - - - - -
24/01:04am 24.5 NE 20 24 1016.1 - - - - - - - - -
24/01:00am 24.3 E 19 24 1016.2 - - - - - - - - -
24/12:30am 24.4 E 19 24 1016.4 - - - - - - - - -
24/12:07am 24.5 E 20 25 1016.8 - - - - - - - - -
24/12:01am 24.6 ENE 23 25 1016.8 - - - - - - - - -
24/12:00am 24.7 ESE 21 25 1016.9 - - - - - - - - -
 
Date/Time
EST
Temp

°C
Wind Pressure Rain
since 9am
mm
Weather Cloud Vis
km
Sea
Height
m
Swell
Dir
 
Speed
knots
Gust
knots
hPa Trend Height
m
Period
s
Dir
23/11:57pm 24.4 E 19 23 1016.9 - - - - - - - - -
23/11:54pm 24.4 ENE 20 24 1016.9 - - - - - - - - -
23/11:30pm 24.5 ESE 20 26 1017.1 - - - - - - - - -
23/11:13pm 24.5 E 20 26 1017.1 - - - - - - - - -
23/11:11pm 24.5 NE 22 26 1017.1 - - - - - - - - -
23/11:00pm 24.5 ESE 21 26 1017.2 - - - - - - - - -
23/10:30pm 24.6 ESE 22 26 1017.3 - - - - - - - - -
23/10:27pm 24.6 E 22 26 1017.3 - - - - - - - - -
23/10:25pm 24.6 ENE 23 26 1017.4 - - - - - - - - -
23/10:00pm 24.6 E 22 26 1017.1 - - - - - - - - -
23/09:30pm 24.8 E 22 27 1017.2 - - - - - - - - -
23/09:00pm 24.6 ESE 21 27 1016.8 - - - - - - - - -
23/08:30pm 24.7 E 20 24 1016.7 - - - - - - - - -
23/08:21pm 24.6 ESE 20 25 1016.6 - - - - - - - - -
23/08:16pm 24.8 E 22 27 1016.5 - - - - - - - - -
23/08:06pm 24.8 ESE 18 25 1016.6 - - - - - - - - -
23/08:03pm 24.6 NE 20 25 1016.5 - - - - - - - - -
23/08:00pm 24.6 ESE 19 26 1016.4 - - - - - - - - -
23/07:40pm 24.7 ESE 18 25 1016.4 - - - - - - - - -
23/07:38pm 24.8 ENE 21 25 1016.3 - - - - - - - - -
23/07:33pm 24.7 E 20 25 1016.4 - - - - - - - - -
23/07:30pm 24.7 NE 21 25 1016.3 - - - - - - - - -
23/07:22pm 24.8 NE 21 25 1016.2 - - - - - - - - -
23/07:20pm 24.6 E 19 25 1016.2 - - - - - - - - -
23/07:18pm 24.8 NE 20 25 1016.2 - - - - - - - - -
23/07:00pm 24.7 E 19 24 1015.7 - - - - - - - - -
23/06:57pm 24.8 E 18 24 1015.9 - - - - - - - - -
23/06:52pm 24.8 NE 20 25 1015.8 - - - - - - - - -
23/06:40pm 24.9 E 18 25 1015.8 - - - - - - - - -
23/06:38pm 24.7 ENE 20 25 1015.7 - - - - - - - - -
23/06:37pm 24.7 E 20 25 1015.7 - - - - - - - - -
23/06:34pm 24.8 NE 23 25 1015.7 - - - - - - - - -
23/06:30pm 24.7 E 19 26 1015.7 - - - - - - - - -
23/06:23pm 24.7 ENE 22 27 1015.6 - - - - - - - - -
23/06:00pm 24.8 SSE 16 27 1015.1 - - - - - - - - -
23/05:54pm 24.8 E 20 27 1015.3 - - - - - - - - -
23/05:49pm 24.6 SE 17 28 1015.2 - - - - - - - - -
23/05:41pm 24.7 ESE 22 25 1015.2 - - - - - - - - -
23/05:31pm 24.8 SSE 20 25 1014.9 - - - - - - - - -
23/05:30pm 24.8 E 15 25 1014.9 - - - - - - - - -
23/05:29pm 25.0 E 14 25 1014.9 - - - - - - - - -
23/05:23pm 24.9 SE 21 27 1014.9 - - - - - - - - -
23/05:17pm 24.8 ESE 21 27 1014.8 - - - - - - - - -
23/05:12pm 24.9 SSE 18 27 1014.8 - - - - - - - - -
23/05:06pm 24.8 ESE 21 27 1014.7 - - - - - - - - -
23/05:00pm 24.8 SE 21 29 1014.2 - - - - - - - - -
23/04:55pm 24.8 ENE 18 29 1014.5 - - - - - - - - -
23/04:49pm 24.9 SE 21 28 1014.3 - - - - - - - - -
23/04:47pm 24.8 E 17 28 1014.3 - - - - - - - - -
23/04:40pm 24.8 SE 20 27 1014.3 - - - - - - - - -
23/04:35pm 24.9 ENE 19 27 1014.2 - - - - - - - - -
23/04:30pm 24.8 SE 21 25 1014.1 - - - - - - - - -
23/04:28pm 24.9 ESE 21 25 1014.2 - - - - - - - - -
23/04:26pm 24.7 NE 18 26 1014.1 - - - - - - - - -
23/04:22pm 24.8 SE 20 26 1014.1 - - - - - - - - -
23/04:19pm 24.7 E 20 27 1014.1 - - - - - - - - -
23/04:12pm 24.9 SE 21 27 1013.9 - - - - - - - - -
23/04:10pm 24.8 E 21 27 1013.9 - - - - - - - - -
23/04:00pm 24.8 SE 22 27 1013.8 - - - - - - - - -
23/03:30pm 24.9 SE 16 24 1013.8 - - - - - - - - -
23/03:05pm 25.0 SE 16 27 1013.9 - - - - - - - - -
23/03:00pm 24.8 SE 19 27 1013.8 - - - - - - - - -
23/02:32pm 24.9 E 19 26 1014.0 - - - - - - - - -
23/02:31pm 24.9 ENE 20 26 1013.9 - - - - - - - - -
23/02:30pm 24.9 SE 19 27 1013.9 - - - - - - - - -
23/02:00pm 24.6 SE 17 24 1014.2 - - - - - - - - -
23/01:49pm 24.8 ESE 19 27 1014.3 - - - - - - - - -
23/01:44pm 24.7 ENE 22 27 1014.3 - - - - - - - - -
23/01:42pm 24.7 SE 20 27 1014.3 - - - - - - - - -
23/01:30pm 24.6 E 16 25 1014.4 - - - - - - - - -

Other Formats:

Comma delimited format used in spreadsheet applications
http://www.bom.gov.au/fwo/IDQ60701/IDQ60701.95288.axf

JavaScript Object Notation format (JSON) in row-major order
http://www.bom.gov.au/fwo/IDQ60701/IDQ60701.95288.json